This is the latest recevied weather packets stored in our database for station/object N0QV. If no packets are shown the sender has not sent any weather packets the latest 10 day(s).
| Time | Temp. | Humidity | Pressure | Rain* | Wind** | Luminosity | Snow |
|---|---|---|---|---|---|---|---|
| 1788015115 | 22.78° C | 75% | 1011.4 hPa | 0 mm | - | 218 W/m² | - |
| 1788014814 | 22.78° C | 75% | 1011.3 hPa | 0 mm | - | 335 W/m² | - |
| 1788014514 | 22.78° C | 76% | 1011.1 hPa | 0 mm | - | 228 W/m² | - |
| 1788014209 | 22.78° C | 77% | 1011.1 hPa | 0 mm | - | 176 W/m² | - |
| 1788013909 | 22.78° C | 78% | 1011.5 hPa | 0 mm | - | 204 W/m² | - |
| 1788013603 | 22.78° C | 79% | 1011.3 hPa | 0 mm | - | 184 W/m² | - |
| 1788013298 | 22.22° C | 80% | 1011.5 hPa | 0 mm | - | 230 W/m² | - |
| 1788012998 | 22.22° C | 80% | 1011.3 hPa | 0 mm | - | 175 W/m² | - |
| 1788012691 | 21.67° C | 81% | 1011.4 hPa | 0 mm | - | 170 W/m² | - |
| 1788012388 | 21.67° C | 83% | 1011.4 hPa | 0 mm | - | 203 W/m² | - |
| 1788012082 | 21.11° C | 84% | 1011.5 hPa | 0 mm | - | 173 W/m² | - |
| 1788011781 | 20.56° C | 85% | 1011.7 hPa | 0 mm | - | 144 W/m² | - |
| 1788011480 | 20.56° C | 85% | 1011.5 hPa | 0 mm | - | 136 W/m² | - |
| 1788011175 | 20.56° C | 86% | 1011.6 hPa | 0 mm | - | 122 W/m² | - |
| 1788010870 | 20.56° C | 86% | 1011.5 hPa | 0 mm | - | 87 W/m² | - |
| 1788010569 | 20.56° C | 86% | 1011.8 hPa | 0 mm | - | 66 W/m² | - |
| 1788010263 | 20.56° C | 86% | 1011.7 hPa | 0 mm | - | 71 W/m² | - |
| 1788009963 | 20.56° C | 86% | 1011.6 hPa | 0 mm | - | 91 W/m² | - |
| 1788009662 | 20.56° C | 86% | 1011.8 hPa | 0 mm | - | 107 W/m² | - |
| 1788009356 | 20.56° C | 85% | 1011.9 hPa | 0 mm | - | 100 W/m² | - |
| 1788009056 | 20° C | 87% | 1012.1 hPa | 0 mm | - | 92 W/m² | - |
| 1788008751 | 20° C | 87% | 1012.1 hPa | 0 mm | - | 79 W/m² | - |
| 1788008451 | 20° C | 87% | 1012.4 hPa | 0 mm | - | 78 W/m² | - |
| 1788008148 | 20° C | 87% | 1012.4 hPa | 0 mm | - | 72 W/m² | - |
| 1788007847 | 20° C | 87% | 1012.7 hPa | 0 mm | - | 61 W/m² | - |
* Rain latest hour (hover to see other rain measurements)
** Current wind speed in m/s (hover to see current wind gust speed)